Time,TemperatureF,DewpointF,PressureIn,WindDirection,WindDirectionDegrees,WindSpeedMPH,WindSpeedGustMPH,Humidity,HourlyPrecipIn,Conditions,Clouds,dailyrainin,SoftwareType,DateUTC
2013-04-17 00:00:00,73.5,70.7,29.88,NNW,331,6.0,14.0,91,0.00,,---,0.00,VWS V14.00,2013-04-17 05:00:00,
2013-04-17 00:05:00,73.5,70.7,29.88,East,84,6.0,12.0,91,0.00,,---,0.00,VWS V14.00,2013-04-17 05:05:00,
2013-04-17 00:09:00,73.5,70.7,29.88,SSE,160,6.0,13.0,91,0.00,,---,0.00,VWS V14.00,2013-04-17 05:09:00,
2013-04-17 00:10:00,73.5,70.7,29.88,ESE,110,7.0,13.0,91,0.00,,---,0.00,VWS V14.00,2013-04-17 05:10:00,
2013-04-17 00:14:00,73.5,70.7,29.88,WSW,252,2.0,17.0,91,0.00,,---,0.00,VWS V14.00,2013-04-17 05:14:00,
2013-04-17 00:15:00,73.5,70.7,29.88,East,99,6.0,17.0,91,0.00,,---,0.00,VWS V14.00,2013-04-17 05:15:00,
2013-04-17 00:19:00,73.5,70.4,29.88,SSE,150,1.0,14.0,90,0.00,,---,0.00,VWS V14.00,2013-04-17 05:19:00,
2013-04-17 00:20:00,73.5,70.4,29.88,SSE,153,5.0,14.0,90,0.00,,---,0.00,VWS V14.00,2013-04-17 05:20:00,
2013-04-17 00:24:00,73.5,70.4,29.88,SE,130,6.0,14.0,90,0.00,,---,0.00,VWS V14.00,2013-04-17 05:24:00,
2013-04-17 00:25:00,73.5,70.4,29.89,East,101,6.0,14.0,90,0.00,,---,0.00,VWS V14.00,2013-04-17 05:25:00,
2013-04-17 00:29:00,73.5,70.4,29.88,West,269,3.0,13.0,90,0.00,,---,0.00,VWS V14.00,2013-04-17 05:29:00,
2013-04-17 00:30:00,73.5,70.4,29.88,SE,126,4.0,20.0,90,0.00,,---,0.00,VWS V14.00,2013-04-17 05:30:00,
2013-04-17 00:34:00,73.5,70.4,29.89,SSE,167,0.0,12.0,90,0.00,,---,0.00,VWS V14.00,2013-04-17 05:34:00,
2013-04-17 00:35:00,73.5,70.4,29.90,East,90,7.0,14.0,90,0.00,,---,0.00,VWS V14.00,2013-04-17 05:35:00,
2013-04-17 00:39:00,73.5,70.4,29.90,ESE,102,6.0,12.0,90,0.00,,---,0.00,VWS V14.00,2013-04-17 05:39:00,
2013-04-17 00:40:00,73.6,70.5,29.90,ESE,116,5.0,12.0,90,0.00,,---,0.00,VWS V14.00,2013-04-17 05:40:00,
2013-04-17 00:44:00,73.6,70.5,29.89,ESE,122,6.0,11.0,90,0.00,,---,0.00,VWS V14.00,2013-04-17 05:44:00,
2013-04-17 00:45:00,73.6,70.5,29.89,SE,130,9.0,16.0,90,0.00,,---,0.00,VWS V14.00,2013-04-17 05:45:00,
2013-04-17 00:49:00,73.6,70.5,29.90,East,92,7.0,13.0,90,0.00,,---,0.00,VWS V14.00,2013-04-17 05:49:00,
2013-04-17 00:50:00,73.6,70.5,29.90,East,90,3.0,13.0,90,0.00,,---,0.00,VWS V14.00,2013-04-17 05:50:00,
2013-04-17 00:54:00,73.6,70.5,29.91,SSW,198,3.0,11.0,90,0.00,,---,0.00,VWS V14.00,2013-04-17 05:54:00,
2013-04-17 00:55:00,73.6,70.5,29.91,SE,132,1.0,11.0,90,0.00,,---,0.00,VWS V14.00,2013-04-17 05:55:00,
2013-04-17 00:59:00,73.5,70.4,29.90,ESE,107,6.0,9.0,90,0.00,,---,0.00,VWS V14.00,2013-04-17 05:59:00,
2013-04-17 01:00:00,73.5,70.4,29.90,ESE,106,4.0,9.0,90,0.00,,---,0.00,VWS V14.00,2013-04-17 06:00:00,
2013-04-17 01:04:00,73.5,70.4,29.90,SSE,160,5.0,13.0,90,0.00,,---,0.00,VWS V14.00,2013-04-17 06:04:00,
2013-04-17 01:05:00,73.5,70.4,29.90,SE,125,3.0,13.0,90,0.00,,---,0.00,VWS V14.00,2013-04-17 06:05:00,
2013-04-17 01:09:00,73.5,70.4,29.90,SE,136,3.0,11.0,90,0.00,,---,0.00,VWS V14.00,2013-04-17 06:09:00,
2013-04-17 01:10:00,73.5,70.4,29.90,ESE,111,6.0,11.0,90,0.00,,---,0.00,VWS V14.00,2013-04-17 06:10:00,
2013-04-17 01:14:00,73.5,70.4,29.90,East,100,2.0,7.0,90,0.00,,---,0.00,VWS V14.00,2013-04-17 06:14:00,
2013-04-17 01:15:00,73.5,70.4,29.90,SSW,213,10.0,11.0,90,0.00,,---,0.00,VWS V14.00,2013-04-17 06:15:00,
2013-04-17 01:19:00,73.5,70.4,29.91,ESE,120,6.0,12.0,90,0.00,,---,0.00,VWS V14.00,2013-04-17 06:19:00,
2013-04-17 01:20:00,73.5,70.4,29.91,SE,137,4.0,12.0,90,0.00,,---,0.00,VWS V14.00,2013-04-17 06:20:00,
2013-04-17 01:24:00,73.5,70.4,29.91,SSE,147,5.0,9.0,90,0.00,,---,0.00,VWS V14.00,2013-04-17 06:24:00,
2013-04-17 01:25:00,73.5,70.4,29.91,East,96,7.0,9.0,90,0.00,,---,0.00,VWS V14.00,2013-04-17 06:25:00,
2013-04-17 01:29:00,73.5,70.4,29.91,WSW,237,10.0,10.0,90,0.00,,---,0.00,VWS V14.00,2013-04-17 06:29:00,
2013-04-17 01:30:00,73.5,70.4,29.91,SE,140,2.0,10.0,90,0.00,,---,0.00,VWS V14.00,2013-04-17 06:30:00,
2013-04-17 01:34:00,73.5,70.4,29.91,South,177,3.0,7.0,90,0.00,,---,0.00,VWS V14.00,2013-04-17 06:34:00,
2013-04-17 01:35:00,73.5,70.4,29.91,SSE,167,6.0,7.0,90,0.00,,---,0.00,VWS V14.00,2013-04-17 06:35:00,
2013-04-17 01:39:00,73.5,70.4,29.91,SE,136,4.0,10.0,90,0.00,,---,0.00,VWS V14.00,2013-04-17 06:39:00,
2013-04-17 01:40:00,73.5,70.4,29.91,ESE,114,5.0,10.0,90,0.00,,---,0.00,VWS V14.00,2013-04-17 06:40:00,
2013-04-17 01:44:00,73.5,70.4,29.91,SE,136,4.0,11.0,90,0.00,,---,0.00,VWS V14.00,2013-04-17 06:44:00,
2013-04-17 01:45:00,73.5,70.4,29.91,WSW,240,2.0,11.0,90,0.00,,---,0.00,VWS V14.00,2013-04-17 06:45:00,
2013-04-17 01:49:00,73.5,70.4,29.91,ESE,118,6.0,14.0,90,0.00,,---,0.00,VWS V14.00,2013-04-17 06:49:00,
2013-04-17 01:50:00,73.5,70.4,29.91,East,83,3.0,14.0,90,0.00,,---,0.00,VWS V14.00,2013-04-17 06:50:00,
2013-04-17 01:54:00,73.5,70.4,29.91,SSE,161,3.0,11.0,90,0.00,,---,0.00,VWS V14.00,2013-04-17 06:54:00,
2013-04-17 01:55:00,73.5,70.4,29.91,ENE,74,3.0,11.0,90,0.00,,---,0.00,VWS V14.00,2013-04-17 06:55:00,
2013-04-17 01:59:00,73.5,70.4,29.91,SE,136,3.0,6.0,90,0.00,,---,0.00,VWS V14.00,2013-04-17 06:59:00,
2013-04-17 02:00:00,73.5,70.4,29.91,SSW,199,4.0,6.0,90,0.00,,---,0.00,VWS V14.00,2013-04-17 07:00:00,
2013-04-17 02:04:00,73.5,70.4,29.91,ESE,121,3.0,6.0,90,0.00,,---,0.00,VWS V14.00,2013-04-17 07:04:00,
2013-04-17 02:05:00,73.5,70.4,29.91,SSE,150,0.0,6.0,90,0.00,,---,0.00,VWS V14.00,2013-04-17 07:05:00,
2013-04-17 02:09:00,73.4,70.3,29.91,ESE,110,6.0,12.0,90,0.00,,---,0.00,VWS V14.00,2013-04-17 07:09:00,
2013-04-17 02:10:00,73.5,70.4,29.91,SSW,196,3.0,12.0,90,0.00,,---,0.00,VWS V14.00,2013-04-17 07:10:00,
2013-04-17 02:14:00,73.4,70.3,29.91,ESE,121,1.0,6.0,90,0.00,,---,0.00,VWS V14.00,2013-04-17 07:14:00,
2013-04-17 02:15:00,73.5,70.4,29.91,East,90,4.0,10.0,90,0.00,,---,0.00,VWS V14.00,2013-04-17 07:15:00,
2013-04-17 02:19:00,73.4,70.3,29.91,WSW,245,3.0,7.0,90,0.00,,---,0.00,VWS V14.00,2013-04-17 07:19:00,
2013-04-17 02:20:00,73.4,70.3,29.91,SE,142,1.0,7.0,90,0.00,,---,0.00,VWS V14.00,2013-04-17 07:20:00,
2013-04-17 02:24:00,73.4,70.3,29.91,ESE,121,3.0,7.0,90,0.00,,---,0.00,VWS V14.00,2013-04-17 07:24:00,
2013-04-17 02:25:00,73.4,70.3,29.91,SSW,207,1.0,7.0,90,0.00,,---,0.00,VWS V14.00,2013-04-17 07:25:00,
2013-04-17 02:29:00,73.4,70.3,29.91,East,96,2.0,7.0,90,0.00,,---,0.00,VWS V14.00,2013-04-17 07:29:00,
2013-04-17 02:30:00,73.4,70.3,29.91,ESE,105,4.0,10.0,90,0.00,,---,0.00,VWS V14.00,2013-04-17 07:30:00,
2013-04-17 02:34:00,73.4,70.3,29.91,SSW,205,0.0,6.0,90,0.00,,---,0.00,VWS V14.00,2013-04-17 07:34:00,
2013-04-17 02:35:00,73.3,70.2,29.91,SE,130,2.0,11.0,90,0.00,,---,0.00,VWS V14.00,2013-04-17 07:35:00,
2013-04-17 02:39:00,73.3,70.2,29.91,South,169,1.0,9.0,90,0.00,,---,0.00,VWS V14.00,2013-04-17 07:39:00,
2013-04-17 02:40:00,73.3,70.2,29.91,SE,128,4.0,9.0,90,0.00,,---,0.00,VWS V14.00,2013-04-17 07:40:00,
2013-04-17 02:44:00,73.3,70.2,29.91,SSW,198,2.0,7.0,90,0.00,,---,0.00,VWS V14.00,2013-04-17 07:44:00,
2013-04-17 02:45:00,73.3,70.2,29.91,SE,132,1.0,7.0,90,0.00,,---,0.00,VWS V14.00,2013-04-17 07:45:00,
2013-04-17 02:49:00,73.3,70.2,29.92,South,183,0.0,3.0,90,0.00,,---,0.00,VWS V14.00,2013-04-17 07:49:00,
2013-04-17 02:50:00,73.3,70.2,29.92,SSW,207,6.0,6.0,90,0.00,,---,0.00,VWS V14.00,2013-04-17 07:50:00,
2013-04-17 02:54:00,73.3,70.2,29.92,South,178,0.0,6.0,90,0.00,,---,0.00,VWS V14.00,2013-04-17 07:54:00,
2013-04-17 02:55:00,73.3,70.2,29.92,SE,125,2.0,6.0,90,0.00,,---,0.00,VWS V14.00,2013-04-17 07:55:00,
2013-04-17 02:59:00,73.3,70.2,29.91,SSE,165,5.0,6.0,90,0.00,,---,0.00,VWS V14.00,2013-04-17 07:59:00,
2013-04-17 03:00:00,73.3,70.2,29.91,South,188,0.0,9.0,90,0.00,,---,0.00,VWS V14.00,2013-04-17 08:00:00,
2013-04-17 03:04:00,73.3,70.2,29.91,ESE,115,2.0,6.0,90,0.00,,---,0.00,VWS V14.00,2013-04-17 08:04:00,
2013-04-17 03:05:00,73.2,70.1,29.91,SE,129,5.0,6.0,90,0.00,,---,0.00,VWS V14.00,2013-04-17 08:05:00,
2013-04-17 03:09:00,73.2,70.1,29.91,SSE,162,2.0,10.0,90,0.00,,---,0.00,VWS V14.00,2013-04-17 08:09:00,
2013-04-17 03:10:00,73.2,70.1,29.91,SE,132,0.0,10.0,90,0.00,,---,0.00,VWS V14.00,2013-04-17 08:10:00,
2013-04-17 03:14:00,73.2,70.1,29.91,SSW,205,0.0,6.0,90,0.00,,---,0.00,VWS V14.00,2013-04-17 08:14:00,
2013-04-17 03:15:00,73.2,70.1,29.91,SE,146,3.0,6.0,90,0.00,,---,0.00,VWS V14.00,2013-04-17 08:15:00,
2013-04-17 03:19:00,73.2,70.1,29.91,SSW,204,3.0,7.0,90,0.00,,---,0.00,VWS V14.00,2013-04-17 08:19:00,
2013-04-17 03:20:00,73.2,70.1,29.91,South,172,1.0,7.0,90,0.00,,---,0.00,VWS V14.00,2013-04-17 08:20:00,
2013-04-17 03:24:00,73.2,70.1,29.91,SSE,149,0.0,9.0,90,0.00,,---,0.00,VWS V14.00,2013-04-17 08:24:00,
2013-04-17 03:25:00,73.2,70.1,29.91,East,85,2.0,9.0,90,0.00,,---,0.00,VWS V14.00,2013-04-17 08:25:00,
2013-04-17 03:29:00,73.2,70.1,29.91,ESE,107,2.0,5.0,90,0.00,,---,0.00,VWS V14.00,2013-04-17 08:29:00,
2013-04-17 03:30:00,73.2,70.1,29.91,SW,232,2.0,5.0,90,0.00,,---,0.00,VWS V14.00,2013-04-17 08:30:00,
2013-04-17 03:34:00,73.1,70.0,29.90,ESE,111,0.0,7.0,90,0.00,,---,0.00,VWS V14.00,2013-04-17 08:34:00,
2013-04-17 03:35:00,73.1,70.0,29.90,ESE,123,0.0,7.0,90,0.00,,---,0.00,VWS V14.00,2013-04-17 08:35:00,
2013-04-17 03:39:00,73.1,70.0,29.90,South,173,4.0,6.0,90,0.00,,---,0.00,VWS V14.00,2013-04-17 08:39:00,
2013-04-17 03:40:00,73.1,70.0,29.90,SE,130,3.0,10.0,90,0.00,,---,0.00,VWS V14.00,2013-04-17 08:40:00,
2013-04-17 03:44:00,73.1,70.0,29.90,ESE,103,4.0,6.0,90,0.00,,---,0.00,VWS V14.00,2013-04-17 08:44:00,
2013-04-17 03:45:00,73.1,70.0,29.90,SSE,164,0.0,6.0,90,0.00,,---,0.00,VWS V14.00,2013-04-17 08:45:00,
2013-04-17 03:49:00,73.0,69.9,29.90,SSW,198,3.0,7.0,90,0.00,,---,0.00,VWS V14.00,2013-04-17 08:49:00,
2013-04-17 03:50:00,73.0,69.9,29.90,SE,134,1.0,7.0,90,0.00,,---,0.00,VWS V14.00,2013-04-17 08:50:00,
2013-04-17 03:54:00,73.0,69.9,29.90,ENE,58,3.0,9.0,90,0.00,,---,0.00,VWS V14.00,2013-04-17 08:54:00,
2013-04-17 03:55:00,73.0,69.9,29.90,SE,135,2.0,9.0,90,0.00,,---,0.00,VWS V14.00,2013-04-17 08:55:00,
2013-04-17 03:59:00,73.0,69.9,29.90,SW,221,2.0,6.0,90,0.00,,---,0.00,VWS V14.00,2013-04-17 08:59:00,
2013-04-17 04:00:00,73.0,69.9,29.90,East,95,4.0,7.0,90,0.00,,---,0.00,VWS V14.00,2013-04-17 09:00:00,
2013-04-17 04:04:00,73.0,69.9,29.90,ESE,118,2.0,6.0,90,0.00,,---,0.00,VWS V14.00,2013-04-17 09:04:00,
2013-04-17 04:05:00,73.0,69.9,29.90,ESE,105,1.0,6.0,90,0.00,,---,0.00,VWS V14.00,2013-04-17 09:05:00,
2013-04-17 04:09:00,73.0,69.9,29.90,East,100,2.0,7.0,90,0.00,,---,0.00,VWS V14.00,2013-04-17 09:09:00,
2013-04-17 04:10:00,73.0,69.9,29.90,SE,146,5.0,7.0,90,0.00,,---,0.00,VWS V14.00,2013-04-17 09:10:00,
2013-04-17 04:14:00,73.0,69.9,29.91,SSE,167,0.0,5.0,90,0.00,,---,0.00,VWS V14.00,2013-04-17 09:14:00,
2013-04-17 04:15:00,73.0,69.9,29.91,SSE,163,5.0,5.0,90,0.00,,---,0.00,VWS V14.00,2013-04-17 09:15:00,
2013-04-17 04:19:00,73.0,69.9,29.91,SE,139,3.0,5.0,90,0.00,,---,0.00,VWS V14.00,2013-04-17 09:19:00,
2013-04-17 04:20:00,73.0,69.9,29.91,ESE,122,1.0,5.0,90,0.00,,---,0.00,VWS V14.00,2013-04-17 09:20:00,
2013-04-17 04:24:00,73.0,69.9,29.91,South,182,3.0,5.0,90,0.00,,---,0.00,VWS V14.00,2013-04-17 09:24:00,
2013-04-17 04:25:00,73.0,69.9,29.91,South,185,2.0,5.0,90,0.00,,---,0.00,VWS V14.00,2013-04-17 09:25:00,
2013-04-17 04:29:00,73.0,69.9,29.91,SSW,194,0.0,5.0,90,0.00,,---,0.00,VWS V14.00,2013-04-17 09:29:00,
2013-04-17 04:30:00,73.0,69.9,29.91,SE,128,2.0,5.0,90,0.00,,---,0.00,VWS V14.00,2013-04-17 09:30:00,
2013-04-17 04:34:00,73.0,69.9,29.91,ESE,113,3.0,5.0,90,0.00,,---,0.00,VWS V14.00,2013-04-17 09:34:00,
2013-04-17 04:35:00,73.0,69.9,29.91,SE,138,1.0,5.0,90,0.00,,---,0.00,VWS V14.00,2013-04-17 09:35:00,
2013-04-17 04:39:00,73.0,69.9,29.91,ESE,114,0.0,5.0,90,0.00,,---,0.00,VWS V14.00,2013-04-17 09:39:00,
2013-04-17 04:40:00,73.0,69.9,29.91,ESE,105,3.0,5.0,90,0.00,,---,0.00,VWS V14.00,2013-04-17 09:40:00,
2013-04-17 04:44:00,73.0,69.9,29.90,ESE,106,0.0,7.0,90,0.00,,---,0.00,VWS V14.00,2013-04-17 09:44:00,
2013-04-17 04:45:00,73.0,69.9,29.90,East,101,5.0,7.0,90,0.00,,---,0.00,VWS V14.00,2013-04-17 09:45:00,
2013-04-17 04:49:00,72.9,69.8,29.90,East,98,0.0,7.0,90,0.00,,---,0.00,VWS V14.00,2013-04-17 09:49:00,
2013-04-17 04:50:00,72.9,69.8,29.90,SE,129,0.0,7.0,90,0.00,,---,0.00,VWS V14.00,2013-04-17 09:50:00,
2013-04-17 04:54:00,72.9,69.8,29.90,SE,125,0.0,3.0,90,0.00,,---,0.00,VWS V14.00,2013-04-17 09:54:00,
2013-04-17 04:55:00,72.9,69.8,29.90,SE,134,0.0,4.0,90,0.00,,---,0.00,VWS V14.00,2013-04-17 09:55:00,
2013-04-17 04:59:00,72.9,69.8,29.90,SSE,150,0.0,4.0,90,0.00,,---,0.00,VWS V14.00,2013-04-17 09:59:00,
2013-04-17 05:00:00,72.9,69.8,29.90,ESE,114,2.0,4.0,90,0.00,,---,0.00,VWS V14.00,2013-04-17 10:00:00,
2013-04-17 05:04:00,72.9,69.8,29.91,South,169,2.0,4.0,90,0.00,,---,0.00,VWS V14.00,2013-04-17 10:04:00,
2013-04-17 05:05:00,72.9,69.8,29.91,SSE,160,0.0,5.0,90,0.00,,---,0.00,VWS V14.00,2013-04-17 10:05:00,
2013-04-17 05:09:00,72.9,69.8,29.91,ESE,105,0.0,3.0,90,0.00,,---,0.00,VWS V14.00,2013-04-17 10:09:00,
2013-04-17 05:10:00,72.9,69.8,29.91,SE,142,0.0,3.0,90,0.00,,---,0.00,VWS V14.00,2013-04-17 10:10:00,
2013-04-17 05:14:00,72.9,69.8,29.91,SE,142,0.0,3.0,90,0.00,,---,0.00,VWS V14.00,2013-04-17 10:14:00,
2013-04-17 05:15:00,72.9,69.8,29.91,East,88,3.0,3.0,90,0.00,,---,0.00,VWS V14.00,2013-04-17 10:15:00,
2013-04-17 05:19:00,72.9,69.8,29.91,ESE,118,0.0,5.0,90,0.00,,---,0.00,VWS V14.00,2013-04-17 10:19:00,
2013-04-17 05:20:00,72.9,69.8,29.91,SSE,152,3.0,5.0,90,0.00,,---,0.00,VWS V14.00,2013-04-17 10:20:00,
2013-04-17 05:24:00,72.8,69.7,29.90,SE,146,0.0,3.0,90,0.00,,---,0.00,VWS V14.00,2013-04-17 10:24:00,
2013-04-17 05:25:00,72.8,69.7,29.90,East,96,0.0,3.0,90,0.00,,---,0.00,VWS V14.00,2013-04-17 10:25:00,
2013-04-17 05:29:00,72.8,69.7,29.90,South,175,0.0,4.0,90,0.00,,---,0.00,VWS V14.00,2013-04-17 10:29:00,
2013-04-17 05:30:00,72.8,69.7,29.90,ESE,109,0.0,4.0,90,0.00,,---,0.00,VWS V14.00,2013-04-17 10:30:00,
2013-04-17 05:34:00,72.8,69.7,29.90,SE,130,2.0,3.0,90,0.00,,---,0.00,VWS V14.00,2013-04-17 10:34:00,
2013-04-17 05:35:00,72.8,69.7,29.90,SSE,160,0.0,3.0,90,0.00,,---,0.00,VWS V14.00,2013-04-17 10:35:00,
2013-04-17 05:39:00,72.8,70.0,29.90,SE,140,0.0,3.0,91,0.00,,---,0.00,VWS V14.00,2013-04-17 10:39:00,
2013-04-17 05:40:00,72.8,70.0,29.90,East,95,4.0,5.0,91,0.00,,---,0.00,VWS V14.00,2013-04-17 10:40:00,
2013-04-17 05:44:00,72.8,70.0,29.89,SSE,161,0.0,4.0,91,0.00,,---,0.00,VWS V14.00,2013-04-17 10:44:00,
2013-04-17 05:45:00,72.8,70.0,29.89,SE,125,0.0,4.0,91,0.00,,---,0.00,VWS V14.00,2013-04-17 10:45:00,
2013-04-17 05:49:00,72.8,70.0,29.89,SE,126,0.0,0.0,91,0.00,,---,0.00,VWS V14.00,2013-04-17 10:49:00,
2013-04-17 05:50:00,72.8,70.0,29.89,East,98,2.0,4.0,91,0.00,,---,0.00,VWS V14.00,2013-04-17 10:50:00,
2013-04-17 05:54:00,72.8,70.0,29.89,SE,126,2.0,2.0,91,0.00,,---,0.00,VWS V14.00,2013-04-17 10:54:00,
2013-04-17 05:55:00,72.8,70.0,29.89,SSW,207,2.0,2.0,91,0.00,,---,0.00,VWS V14.00,2013-04-17 10:55:00,
2013-04-17 05:59:00,72.8,70.0,29.89,East,101,3.0,3.0,91,0.00,,---,0.00,VWS V14.00,2013-04-17 10:59:00,
2013-04-17 06:00:00,72.8,70.0,29.89,SE,144,0.0,3.0,91,0.00,,---,0.00,VWS V14.00,2013-04-17 11:00:00,
2013-04-17 06:04:00,72.8,70.0,29.89,ESE,115,0.0,3.0,91,0.00,,---,0.00,VWS V14.00,2013-04-17 11:04:00,
2013-04-17 06:05:00,72.8,70.0,29.89,East,101,0.0,3.0,91,0.00,,---,0.00,VWS V14.00,2013-04-17 11:05:00,
2013-04-17 06:09:00,72.8,70.0,29.89,ESE,113,2.0,3.0,91,0.00,,---,0.00,VWS V14.00,2013-04-17 11:09:00,
2013-04-17 06:10:00,72.8,70.0,29.90,South,169,0.0,3.0,91,0.00,,---,0.00,VWS V14.00,2013-04-17 11:10:00,
2013-04-17 06:14:00,72.8,70.0,29.90,SE,144,0.0,1.0,91,0.00,,---,0.00,VWS V14.00,2013-04-17 11:14:00,
2013-04-17 06:15:00,72.8,70.0,29.90,ESE,115,0.0,3.0,91,0.00,,---,0.00,VWS V14.00,2013-04-17 11:15:00,
2013-04-17 06:19:00,72.8,70.0,29.90,ESE,109,0.0,3.0,91,0.00,,---,0.00,VWS V14.00,2013-04-17 11:19:00,
2013-04-17 06:20:00,72.8,70.0,29.90,SE,137,0.0,3.0,91,0.00,,---,0.00,VWS V14.00,2013-04-17 11:20:00,
2013-04-17 06:24:00,72.9,70.1,29.90,SSE,167,0.0,3.0,91,0.00,,---,0.00,VWS V14.00,2013-04-17 11:24:00,
2013-04-17 06:25:00,72.9,70.1,29.90,SE,138,0.0,4.0,91,0.00,,---,0.00,VWS V14.00,2013-04-17 11:25:00,
2013-04-17 06:29:00,72.9,70.1,29.90,SE,142,0.0,3.0,91,0.00,,---,0.00,VWS V14.00,2013-04-17 11:29:00,
2013-04-17 06:30:00,73.0,70.2,29.90,SE,142,0.0,3.0,91,0.00,,---,0.00,VWS V14.00,2013-04-17 11:30:00,
2013-04-17 06:34:00,73.0,70.2,29.90,ESE,118,1.0,3.0,91,0.00,,---,0.00,VWS V14.00,2013-04-17 11:34:00,
2013-04-17 06:35:00,73.0,70.2,29.90,SSW,194,0.0,3.0,91,0.00,,---,0.00,VWS V14.00,2013-04-17 11:35:00,
2013-04-17 06:39:00,73.0,70.2,29.90,SSW,212,0.0,2.0,91,0.00,,---,0.00,VWS V14.00,2013-04-17 11:39:00,
2013-04-17 06:40:00,73.0,70.2,29.90,SE,137,0.0,3.0,91,0.00,,---,0.00,VWS V14.00,2013-04-17 11:40:00,
2013-04-17 06:44:00,73.0,70.2,29.90,ESE,117,0.0,1.0,91,0.00,,---,0.00,VWS V14.00,2013-04-17 11:44:00,
2013-04-17 06:45:00,73.0,70.2,29.90,SE,137,0.0,2.0,91,0.00,,---,0.00,VWS V14.00,2013-04-17 11:45:00,
2013-04-17 06:49:00,73.0,70.2,29.91,SE,137,0.0,4.0,91,0.00,,---,0.00,VWS V14.00,2013-04-17 11:49:00,
2013-04-17 06:50:00,73.0,70.2,29.91,ESE,122,0.0,4.0,91,0.00,,---,0.00,VWS V14.00,2013-04-17 11:50:00,
2013-04-17 06:54:00,72.9,70.1,29.91,SW,218,0.0,3.0,91,0.00,,---,0.00,VWS V14.00,2013-04-17 11:54:00,
2013-04-17 06:55:00,72.9,70.1,29.91,ESE,112,1.0,4.0,91,0.00,,---,0.00,VWS V14.00,2013-04-17 11:55:00,
2013-04-17 06:59:00,72.9,70.1,29.91,ESE,106,1.0,3.0,91,0.00,,---,0.00,VWS V14.00,2013-04-17 11:59:00,
2013-04-17 07:00:00,72.8,70.0,29.91,SE,125,0.0,5.0,91,0.00,,---,0.00,VWS V14.00,2013-04-17 12:00:00,
2013-04-17 07:03:00,72.8,70.0,29.90,SE,138,2.0,2.0,91,0.00,,---,0.00,VWS V14.00,2013-04-17 12:03:00,
2013-04-17 07:05:00,72.8,70.0,29.90,SE,136,0.0,2.0,91,0.00,,---,0.00,VWS V14.00,2013-04-17 12:05:00,
2013-04-17 07:08:00,72.8,70.0,29.90,ESE,114,0.0,5.0,91,0.00,,---,0.00,VWS V14.00,2013-04-17 12:08:00,
2013-04-17 07:10:00,72.8,70.0,29.90,ESE,103,0.0,5.0,91,0.00,,---,0.00,VWS V14.00,2013-04-17 12:10:00,
2013-04-17 07:13:00,72.9,70.1,29.90,East,94,0.0,5.0,91,0.00,,---,0.00,VWS V14.00,2013-04-17 12:13:00,
2013-04-17 07:15:00,72.9,70.1,29.90,East,82,0.0,5.0,91,0.00,,---,0.00,VWS V14.00,2013-04-17 12:15:00,
2013-04-17 07:18:00,72.9,70.1,29.90,SE,138,1.0,5.0,91,0.00,,---,0.00,VWS V14.00,2013-04-17 12:18:00,
2013-04-17 07:20:00,72.9,70.1,29.90,East,98,0.0,5.0,91,0.00,,---,0.00,VWS V14.00,2013-04-17 12:20:00,
2013-04-17 07:23:00,73.0,70.2,29.90,ESE,105,2.0,2.0,91,0.00,,---,0.00,VWS V14.00,2013-04-17 12:23:00,
2013-04-17 07:25:00,73.0,70.2,29.90,SE,134,0.0,2.0,91,0.00,,---,0.00,VWS V14.00,2013-04-17 12:25:00,
2013-04-17 07:28:00,73.0,70.2,29.90,SE,135,1.0,6.0,91,0.00,,---,0.00,VWS V14.00,2013-04-17 12:28:00,
2013-04-17 07:30:00,73.0,70.2,29.90,East,99,0.0,6.0,91,0.00,,---,0.00,VWS V14.00,2013-04-17 12:30:00,
2013-04-17 07:33:00,73.0,70.2,29.90,ESE,121,1.0,3.0,91,0.00,,---,0.00,VWS V14.00,2013-04-17 12:33:00,
2013-04-17 07:35:00,73.0,70.2,29.91,SE,133,0.0,3.0,91,0.00,,---,0.00,VWS V14.00,2013-04-17 12:35:00,
2013-04-17 07:38:00,73.0,70.2,29.91,SSE,156,0.0,1.0,91,0.00,,---,0.00,VWS V14.00,2013-04-17 12:38:00,
2013-04-17 07:40:00,73.0,70.2,29.91,South,174,3.0,3.0,91,0.00,,---,0.00,VWS V14.00,2013-04-17 12:40:00,
2013-04-17 07:43:00,73.1,70.3,29.91,SE,124,0.0,3.0,91,0.00,,---,0.00,VWS V14.00,2013-04-17 12:43:00,
2013-04-17 07:45:00,73.1,70.3,29.91,South,180,2.0,3.0,91,0.00,,---,0.00,VWS V14.00,2013-04-17 12:45:00,
2013-04-17 07:48:00,73.1,70.3,29.91,SE,140,0.0,4.0,91,0.00,,---,0.00,VWS V14.00,2013-04-17 12:48:00,
2013-04-17 07:50:00,73.2,70.4,29.91,SE,130,0.0,4.0,91,0.00,,---,0.00,VWS V14.00,2013-04-17 12:50:00,
2013-04-17 07:53:00,73.2,70.4,29.91,ESE,111,3.0,4.0,91,0.00,,---,0.00,VWS V14.00,2013-04-17 12:53:00,
2013-04-17 07:55:00,73.2,70.4,29.91,ESE,121,2.0,5.0,91,0.00,,---,0.00,VWS V14.00,2013-04-17 12:55:00,
2013-04-17 07:58:00,73.3,70.5,29.91,East,98,3.0,6.0,91,0.00,,---,0.00,VWS V14.00,2013-04-17 12:58:00,
2013-04-17 08:00:00,73.3,70.5,29.91,SE,125,0.0,6.0,91,0.00,,---,0.00,VWS V14.00,2013-04-17 13:00:00,
2013-04-17 08:03:00,73.3,70.5,29.91,ESE,119,1.0,5.0,91,0.00,,---,0.00,VWS V14.00,2013-04-17 13:03:00,
2013-04-17 08:05:00,73.3,70.5,29.91,ENE,65,0.0,5.0,91,0.00,,---,0.00,VWS V14.00,2013-04-17 13:05:00,
2013-04-17 08:08:00,73.3,70.5,29.91,ESE,107,2.0,4.0,91,0.00,,---,0.00,VWS V14.00,2013-04-17 13:08:00,
2013-04-17 08:10:00,73.3,70.5,29.91,ESE,104,4.0,7.0,91,0.00,,---,0.00,VWS V14.00,2013-04-17 13:10:00,
2013-04-17 08:13:00,73.3,70.5,29.91,SE,134,2.0,5.0,91,0.00,,---,0.00,VWS V14.00,2013-04-17 13:13:00,
2013-04-17 08:15:00,73.4,70.6,29.91,SE,126,2.0,5.0,91,0.00,,---,0.00,VWS V14.00,2013-04-17 13:15:00,
2013-04-17 08:18:00,73.4,70.6,29.91,ESE,105,3.0,5.0,91,0.00,,---,0.00,VWS V14.00,2013-04-17 13:18:00,
2013-04-17 08:20:00,73.4,70.6,29.91,ESE,121,2.0,5.0,91,0.00,,---,0.00,VWS V14.00,2013-04-17 13:20:00,
2013-04-17 08:23:00,73.4,70.6,29.91,SSE,147,4.0,5.0,91,0.00,,---,0.00,VWS V14.00,2013-04-17 13:23:00,
2013-04-17 08:25:00,73.4,70.6,29.91,SE,133,5.0,5.0,91,0.00,,---,0.00,VWS V14.00,2013-04-17 13:25:00,
2013-04-17 08:28:00,73.4,70.6,29.91,ESE,110,4.0,5.0,91,0.00,,---,0.00,VWS V14.00,2013-04-17 13:28:00,
2013-04-17 08:30:00,73.4,70.6,29.91,SE,141,2.0,5.0,91,0.00,,---,0.00,VWS V14.00,2013-04-17 13:30:00,
2013-04-17 08:33:00,73.5,70.7,29.91,ESE,120,3.0,5.0,91,0.00,,---,0.00,VWS V14.00,2013-04-17 13:33:00,
2013-04-17 08:35:00,73.5,70.7,29.91,ESE,107,7.0,7.0,91,0.00,,---,0.00,VWS V14.00,2013-04-17 13:35:00,
2013-04-17 08:38:00,73.5,70.7,29.91,SE,137,3.0,7.0,91,0.00,,---,0.00,VWS V14.00,2013-04-17 13:38:00,
2013-04-17 08:40:00,73.5,70.4,29.91,SSE,165,0.0,7.0,90,0.00,,---,0.00,VWS V14.00,2013-04-17 13:40:00,
2013-04-17 08:43:00,73.5,70.4,29.91,ESE,113,2.0,5.0,90,0.00,,---,0.00,VWS V14.00,2013-04-17 13:43:00,
2013-04-17 08:45:00,73.5,70.4,29.92,ESE,109,6.0,6.0,90,0.00,,---,0.00,VWS V14.00,2013-04-17 13:45:00,
2013-04-17 08:48:00,73.5,70.4,29.91,ESE,115,0.0,9.0,90,0.00,,---,0.00,VWS V14.00,2013-04-17 13:48:00,
2013-04-17 08:50:00,73.5,70.4,29.92,ESE,123,2.0,9.0,90,0.00,,---,0.00,VWS V14.00,2013-04-17 13:50:00,
2013-04-17 08:53:00,73.5,70.4,29.92,East,93,4.0,7.0,90,0.00,,---,0.00,VWS V14.00,2013-04-17 13:53:00,
2013-04-17 08:55:00,73.5,70.4,29.91,SE,142,0.0,7.0,90,0.00,,---,0.00,VWS V14.00,2013-04-17 13:55:00,
2013-04-17 08:58:00,73.5,70.4,29.92,SE,126,2.0,5.0,90,0.00,,---,0.00,VWS V14.00,2013-04-17 13:58:00,
2013-04-17 09:00:00,73.6,70.5,29.92,ESE,106,5.0,5.0,90,0.00,,---,0.00,VWS V14.00,2013-04-17 14:00:00,
2013-04-17 09:03:00,73.6,70.5,29.92,SE,134,3.0,5.0,90,0.00,,---,0.00,VWS V14.00,2013-04-17 14:03:00,
2013-04-17 09:05:00,73.6,70.5,29.92,South,176,2.0,6.0,90,0.00,,---,0.00,VWS V14.00,2013-04-17 14:05:00,
2013-04-17 09:08:00,73.7,70.6,29.92,East,101,3.0,4.0,90,0.00,,---,0.00,VWS V14.00,2013-04-17 14:08:00,
2013-04-17 09:10:00,73.7,70.6,29.92,ESE,102,2.0,6.0,90,0.00,,---,0.00,VWS V14.00,2013-04-17 14:10:00,
2013-04-17 09:13:00,73.7,70.6,29.92,SE,126,2.0,5.0,90,0.00,,---,0.00,VWS V14.00,2013-04-17 14:13:00,
2013-04-17 09:15:00,73.8,70.7,29.92,SE,127,1.0,5.0,90,0.00,,---,0.00,VWS V14.00,2013-04-17 14:15:00,
2013-04-17 09:18:00,73.8,70.7,29.92,SSE,151,4.0,6.0,90,0.00,,---,0.00,VWS V14.00,2013-04-17 14:18:00,
2013-04-17 09:20:00,73.9,70.8,29.92,ESE,105,2.0,6.0,90,0.00,,---,0.00,VWS V14.00,2013-04-17 14:20:00,
2013-04-17 09:23:00,73.9,70.8,29.92,South,183,0.0,5.0,90,0.00,,---,0.00,VWS V14.00,2013-04-17 14:23:00,
2013-04-17 09:25:00,73.9,70.8,29.92,East,92,4.0,6.0,90,0.00,,---,0.00,VWS V14.00,2013-04-17 14:25:00,
2013-04-17 09:28:00,74.0,70.9,29.92,South,179,1.0,5.0,90,0.00,,---,0.00,VWS V14.00,2013-04-17 14:28:00,
2013-04-17 09:30:00,74.1,71.0,29.92,East,99,5.0,5.0,90,0.00,,---,0.00,VWS V14.00,2013-04-17 14:30:00,
2013-04-17 09:33:00,74.1,71.0,29.92,East,98,3.0,5.0,90,0.00,,---,0.00,VWS V14.00,2013-04-17 14:33:00,
2013-04-17 09:35:00,74.1,71.0,29.92,ESE,109,0.0,7.0,90,0.00,,---,0.00,VWS V14.00,2013-04-17 14:35:00,
2013-04-17 09:38:00,74.2,71.1,29.91,East,101,2.0,6.0,90,0.00,,---,0.00,VWS V14.00,2013-04-17 14:38:00,
2013-04-17 09:40:00,74.2,71.1,29.91,East,99,3.0,7.0,90,0.00,,---,0.00,VWS V14.00,2013-04-17 14:40:00,
2013-04-17 09:43:00,74.1,71.0,29.91,SE,124,4.0,9.0,90,0.00,,---,0.00,VWS V14.00,2013-04-17 14:43:00,
2013-04-17 09:45:00,74.2,71.1,29.91,ESE,111,0.0,9.0,90,0.00,,---,0.00,VWS V14.00,2013-04-17 14:45:00,
2013-04-17 09:48:00,74.2,71.1,29.91,ENE,67,2.0,7.0,90,0.00,,---,0.00,VWS V14.00,2013-04-17 14:48:00,
2013-04-17 09:50:00,74.2,71.1,29.91,ESE,119,2.0,7.0,90,0.00,,---,0.00,VWS V14.00,2013-04-17 14:50:00,
2013-04-17 09:53:00,74.2,71.1,29.91,NE,44,4.0,6.0,90,0.00,,---,0.00,VWS V14.00,2013-04-17 14:53:00,
2013-04-17 09:55:00,74.2,71.1,29.91,East,86,0.0,6.0,90,0.00,,---,0.00,VWS V14.00,2013-04-17 14:55:00,
2013-04-17 09:58:00,74.2,71.1,29.90,ESE,103,3.0,6.0,90,0.00,,---,0.00,VWS V14.00,2013-04-17 14:58:00,
2013-04-17 10:00:00,74.2,71.1,29.90,ESE,121,0.0,6.0,90,0.00,,---,0.00,VWS V14.00,2013-04-17 15:00:00,
2013-04-17 10:03:00,74.2,71.1,29.90,ESE,121,0.0,7.0,90,0.00,,---,0.00,VWS V14.00,2013-04-17 15:03:00,
2013-04-17 10:05:00,74.3,71.2,29.90,ESE,115,3.0,7.0,90,0.00,,---,0.00,VWS V14.00,2013-04-17 15:05:00,
2013-04-17 10:08:00,74.3,71.2,29.90,ESE,103,3.0,6.0,90,0.00,,---,0.00,VWS V14.00,2013-04-17 15:08:00,
2013-04-17 10:10:00,74.3,71.2,29.90,ESE,104,4.0,6.0,90,0.00,,---,0.00,VWS V14.00,2013-04-17 15:10:00,
2013-04-17 10:13:00,74.4,71.3,29.90,ESE,105,4.0,5.0,90,0.00,,---,0.00,VWS V14.00,2013-04-17 15:13:00,
2013-04-17 10:15:00,74.3,71.2,29.90,East,80,2.0,7.0,90,0.00,,---,0.00,VWS V14.00,2013-04-17 15:15:00,
2013-04-17 10:18:00,74.3,71.2,29.90,SE,145,2.0,5.0,90,0.00,,---,0.00,VWS V14.00,2013-04-17 15:18:00,
2013-04-17 10:20:00,74.3,71.2,29.90,SE,133,1.0,9.0,90,0.00,,---,0.00,VWS V14.00,2013-04-17 15:20:00,
2013-04-17 10:23:00,74.3,71.2,29.90,ESE,117,2.0,5.0,90,0.00,,---,0.00,VWS V14.00,2013-04-17 15:23:00,
2013-04-17 10:25:00,74.4,71.3,29.90,East,90,3.0,7.0,90,0.00,,---,0.00,VWS V14.00,2013-04-17 15:25:00,
2013-04-17 10:28:00,74.4,71.3,29.90,SSE,152,10.0,10.0,90,0.00,,---,0.00,VWS V14.00,2013-04-17 15:28:00,
2013-04-17 10:30:00,74.4,71.3,29.90,SSE,150,0.0,10.0,90,0.00,,---,0.00,VWS V14.00,2013-04-17 15:30:00,
2013-04-17 10:33:00,74.4,71.3,29.90,East,88,2.0,7.0,90,0.00,,---,0.00,VWS V14.00,2013-04-17 15:33:00,
2013-04-17 10:35:00,74.5,71.4,29.90,ESE,114,2.0,7.0,90,0.00,,---,0.00,VWS V14.00,2013-04-17 15:35:00,
2013-04-17 10:38:00,74.5,71.4,29.90,NE,48,0.0,3.0,90,0.00,,---,0.00,VWS V14.00,2013-04-17 15:38:00,
2013-04-17 10:40:00,74.6,71.5,29.90,ESE,106,4.0,9.0,90,0.00,,---,0.00,VWS V14.00,2013-04-17 15:40:00,
2013-04-17 10:43:00,74.6,71.5,29.90,East,94,4.0,7.0,90,0.00,,---,0.00,VWS V14.00,2013-04-17 15:43:00,
2013-04-17 10:45:00,74.7,71.6,29.90,SSE,153,3.0,7.0,90,0.00,,---,0.00,VWS V14.00,2013-04-17 15:45:00,
2013-04-17 10:48:00,74.8,71.7,29.90,NNW,339,4.0,9.0,90,0.00,,---,0.00,VWS V14.00,2013-04-17 15:48:00,
2013-04-17 10:50:00,74.8,71.7,29.90,ESE,117,5.0,10.0,90,0.00,,---,0.00,VWS V14.00,2013-04-17 15:50:00,
2013-04-17 10:53:00,74.9,71.8,29.90,East,98,4.0,5.0,90,0.00,,---,0.00,VWS V14.00,2013-04-17 15:53:00,
2013-04-17 10:55:00,75.0,71.9,29.90,ESE,112,3.0,6.0,90,0.00,,---,0.00,VWS V14.00,2013-04-17 15:55:00,
2013-04-17 10:58:00,75.1,72.0,29.90,East,99,4.0,10.0,90,0.00,,---,0.00,VWS V14.00,2013-04-17 15:58:00,
2013-04-17 11:00:00,75.1,72.0,29.90,ESE,115,0.0,10.0,90,0.00,,---,0.00,VWS V14.00,2013-04-17 16:00:00,
2013-04-17 11:03:00,75.2,71.7,29.89,SE,125,2.0,9.0,89,0.00,,---,0.00,VWS V14.00,2013-04-17 16:03:00,
2013-04-17 11:05:00,75.3,71.8,29.89,East,95,6.0,9.0,89,0.00,,---,0.00,VWS V14.00,2013-04-17 16:05:00,
2013-04-17 11:08:00,75.3,71.8,29.89,East,101,10.0,10.0,89,0.00,,---,0.00,VWS V14.00,2013-04-17 16:08:00,
2013-04-17 11:10:00,75.3,71.8,29.89,ESE,115,3.0,10.0,89,0.00,,---,0.00,VWS V14.00,2013-04-17 16:10:00,
2013-04-17 11:13:00,75.3,71.8,29.89,East,96,3.0,7.0,89,0.00,,---,0.00,VWS V14.00,2013-04-17 16:13:00,
2013-04-17 11:15:00,75.4,71.9,29.89,ESE,102,3.0,7.0,89,0.00,,---,0.00,VWS V14.00,2013-04-17 16:15:00,
2013-04-17 11:18:00,75.5,72.0,29.89,East,98,8.0,10.0,89,0.00,,---,0.00,VWS V14.00,2013-04-17 16:18:00,
2013-04-17 11:20:00,75.5,72.0,29.89,South,182,6.0,10.0,89,0.00,,---,0.00,VWS V14.00,2013-04-17 16:20:00,
2013-04-17 11:23:00,75.5,72.0,29.89,SE,128,4.0,7.0,89,0.00,,---,0.00,VWS V14.00,2013-04-17 16:23:00,
2013-04-17 11:25:00,75.5,72.0,29.89,East,93,7.0,7.0,89,0.00,,---,0.00,VWS V14.00,2013-04-17 16:25:00,
2013-04-17 11:28:00,75.5,72.0,29.89,ESE,107,1.0,7.0,89,0.00,,---,0.00,VWS V14.00,2013-04-17 16:28:00,
2013-04-17 11:30:00,75.5,72.0,29.89,East,96,4.0,7.0,89,0.00,,---,0.00,VWS V14.00,2013-04-17 16:30:00,
2013-04-17 11:33:00,75.5,72.0,29.89,East,94,9.0,9.0,89,0.00,,---,0.00,VWS V14.00,2013-04-17 16:33:00,
2013-04-17 11:35:00,75.5,72.0,29.89,SE,125,4.0,11.0,89,0.00,,---,0.00,VWS V14.00,2013-04-17 16:35:00,
2013-04-17 11:38:00,75.5,72.0,29.89,ESE,112,3.0,10.0,89,0.00,,---,0.00,VWS V14.00,2013-04-17 16:38:00,
2013-04-17 11:40:00,75.5,72.0,29.89,South,175,3.0,10.0,89,0.00,,---,0.00,VWS V14.00,2013-04-17 16:40:00,
2013-04-17 11:43:00,75.6,72.1,29.89,ESE,116,2.0,13.0,89,0.00,,---,0.00,VWS V14.00,2013-04-17 16:43:00,
2013-04-17 11:45:00,75.5,72.0,29.89,SW,221,4.0,13.0,89,0.00,,---,0.00,VWS V14.00,2013-04-17 16:45:00,
2013-04-17 11:48:00,75.5,72.0,29.89,South,180,4.0,9.0,89,0.00,,---,0.00,VWS V14.00,2013-04-17 16:48:00,
2013-04-17 11:50:00,75.5,72.0,29.89,East,92,5.0,9.0,89,0.00,,---,0.00,VWS V14.00,2013-04-17 16:50:00,
2013-04-17 11:53:00,75.5,72.0,29.88,SE,137,9.0,10.0,89,0.00,,---,0.00,VWS V14.00,2013-04-17 16:53:00,
2013-04-17 11:55:00,75.5,72.0,29.88,SSE,160,2.0,13.0,89,0.00,,---,0.00,VWS V14.00,2013-04-17 16:55:00,
2013-04-17 11:58:00,75.5,72.0,29.88,East,83,4.0,7.0,89,0.00,,---,0.00,VWS V14.00,2013-04-17 16:58:00,
2013-04-17 12:00:00,75.5,72.0,29.88,ESE,109,4.0,9.0,89,0.00,,---,0.00,VWS V14.00,2013-04-17 17:00:00,
2013-04-17 12:03:00,75.6,72.1,29.88,SE,125,5.0,11.0,89,0.00,,---,0.00,VWS V14.00,2013-04-17 17:03:00,
2013-04-17 12:05:00,75.6,72.1,29.88,East,99,7.0,11.0,89,0.00,,---,0.00,VWS V14.00,2013-04-17 17:05:00,
2013-04-17 12:08:00,75.6,72.1,29.88,SSE,167,4.0,14.0,89,0.00,,---,0.00,VWS V14.00,2013-04-17 17:08:00,
2013-04-17 12:10:00,75.7,72.2,29.88,ESE,108,4.0,14.0,89,0.00,,---,0.00,VWS V14.00,2013-04-17 17:10:00,
2013-04-17 12:13:00,75.7,72.2,29.88,SSE,168,4.0,9.0,89,0.00,,---,0.00,VWS V14.00,2013-04-17 17:13:00,
2013-04-17 12:15:00,75.8,72.3,29.88,SSE,157,6.0,9.0,89,0.00,,---,0.00,VWS V14.00,2013-04-17 17:15:00,
2013-04-17 12:18:00,75.8,72.3,29.88,SE,127,4.0,6.0,89,0.00,,---,0.00,VWS V14.00,2013-04-17 17:18:00,
2013-04-17 12:20:00,75.7,72.2,29.88,ESE,103,3.0,11.0,89,0.00,,---,0.00,VWS V14.00,2013-04-17 17:20:00,
2013-04-17 12:23:00,75.7,72.2,29.88,East,96,5.0,11.0,89,0.00,,---,0.00,VWS V14.00,2013-04-17 17:23:00,
2013-04-17 12:25:00,75.7,72.2,29.88,SSE,155,6.0,11.0,89,0.00,,---,0.00,VWS V14.00,2013-04-17 17:25:00,
2013-04-17 12:28:00,75.7,72.2,29.88,SE,136,2.0,10.0,89,0.00,,---,0.00,VWS V14.00,2013-04-17 17:28:00,
2013-04-17 12:30:00,75.7,72.2,29.88,SE,125,2.0,13.0,89,0.00,,---,0.00,VWS V14.00,2013-04-17 17:30:00,
2013-04-17 12:33:00,75.7,72.2,29.88,East,87,6.0,10.0,89,0.00,,---,0.00,VWS V14.00,2013-04-17 17:33:00,
2013-04-17 12:35:00,75.7,72.2,29.87,ESE,110,7.0,11.0,89,0.00,,---,0.00,VWS V14.00,2013-04-17 17:35:00,
2013-04-17 12:38:00,75.7,72.2,29.88,ESE,102,7.0,13.0,89,0.00,,---,0.00,VWS V14.00,2013-04-17 17:38:00,
2013-04-17 12:40:00,75.7,72.2,29.88,ESE,115,5.0,13.0,89,0.00,,---,0.00,VWS V14.00,2013-04-17 17:40:00,
2013-04-17 12:43:00,75.7,72.2,29.87,SW,220,6.0,10.0,89,0.00,,---,0.00,VWS V14.00,2013-04-17 17:43:00,
2013-04-17 12:45:00,75.8,72.3,29.87,ESE,115,3.0,10.0,89,0.00,,---,0.00,VWS V14.00,2013-04-17 17:45:00,
2013-04-17 12:48:00,75.8,72.3,29.87,NW,304,7.0,11.0,89,0.00,,---,0.00,VWS V14.00,2013-04-17 17:48:00,
2013-04-17 12:50:00,75.9,72.1,29.87,SE,134,3.0,11.0,88,0.00,,---,0.00,VWS V14.00,2013-04-17 17:50:00,
2013-04-17 12:53:00,76.0,72.2,29.87,South,186,4.0,7.0,88,0.00,,---,0.00,VWS V14.00,2013-04-17 17:53:00,
2013-04-17 12:55:00,76.0,72.2,29.87,ESE,109,5.0,11.0,88,0.00,,---,0.00,VWS V14.00,2013-04-17 17:55:00,
2013-04-17 12:58:00,75.9,72.1,29.87,East,96,6.0,12.0,88,0.00,,---,0.00,VWS V14.00,2013-04-17 17:58:00,
2013-04-17 13:00:00,75.9,72.1,29.86,SW,219,4.0,12.0,88,0.00,,---,0.00,VWS V14.00,2013-04-17 18:00:00,
2013-04-17 13:03:00,75.9,72.1,29.86,ESE,106,3.0,12.0,88,0.00,,---,0.00,VWS V14.00,2013-04-17 18:03:00,
2013-04-17 13:05:00,75.9,72.1,29.86,ESE,119,3.0,12.0,88,0.00,,---,0.00,VWS V14.00,2013-04-17 18:05:00,
2013-04-17 13:08:00,76.0,72.2,29.86,SSW,192,2.0,6.0,88,0.00,,---,0.00,VWS V14.00,2013-04-17 18:08:00,
2013-04-17 13:10:00,76.1,72.3,29.86,ESE,106,5.0,9.0,88,0.00,,---,0.00,VWS V14.00,2013-04-17 18:10:00,
2013-04-17 13:13:00,76.1,72.3,29.86,East,101,5.0,9.0,88,0.00,,---,0.00,VWS V14.00,2013-04-17 18:13:00,
2013-04-17 13:15:00,76.1,72.3,29.86,ESE,105,3.0,11.0,88,0.00,,---,0.00,VWS V14.00,2013-04-17 18:15:00,
2013-04-17 13:18:00,76.1,72.3,29.86,ESE,115,0.0,9.0,88,0.00,,---,0.00,VWS V14.00,2013-04-17 18:18:00,
2013-04-17 13:20:00,76.2,72.4,29.86,SSW,205,3.0,14.0,88,0.00,,---,0.00,VWS V14.00,2013-04-17 18:20:00,
2013-04-17 13:23:00,76.2,72.4,29.86,ESE,106,2.0,5.0,88,0.00,,---,0.00,VWS V14.00,2013-04-17 18:23:00,
2013-04-17 13:25:00,76.2,72.4,29.86,ENE,68,3.0,12.0,88,0.00,,---,0.00,VWS V14.00,2013-04-17 18:25:00,
2013-04-17 13:28:00,76.2,72.4,29.86,ENE,63,4.0,10.0,88,0.00,,---,0.00,VWS V14.00,2013-04-17 18:28:00,
2013-04-17 13:30:00,76.2,72.4,29.86,SE,131,6.0,10.0,88,0.00,,---,0.00,VWS V14.00,2013-04-17 18:30:00,
2013-04-17 13:33:00,76.2,72.4,29.86,ESE,123,2.0,6.0,88,0.00,,---,0.00,VWS V14.00,2013-04-17 18:33:00,
2013-04-17 13:35:00,76.2,72.4,29.86,ESE,102,2.0,9.0,88,0.00,,---,0.00,VWS V14.00,2013-04-17 18:35:00,
2013-04-17 13:38:00,76.2,72.4,29.86,ESE,111,3.0,7.0,88,0.00,,---,0.00,VWS V14.00,2013-04-17 18:38:00,
2013-04-17 13:40:00,76.2,72.4,29.86,East,100,6.0,9.0,88,0.00,,---,0.00,VWS V14.00,2013-04-17 18:40:00,
2013-04-17 13:42:00,76.1,72.3,29.85,East,95,5.0,11.0,88,0.00,,---,0.00,VWS V14.00,2013-04-17 18:42:00,
2013-04-17 13:45:00,76.0,72.2,29.85,SE,146,10.0,11.0,88,0.00,,---,0.00,VWS V14.00,2013-04-17 18:45:00,
2013-04-17 13:47:00,76.0,72.2,29.85,SSE,148,10.0,12.0,88,0.00,,---,0.00,VWS V14.00,2013-04-17 18:47:00,
2013-04-17 13:50:00,75.9,72.1,29.85,ESE,111,3.0,12.0,88,0.00,,---,0.00,VWS V14.00,2013-04-17 18:50:00,
2013-04-17 13:53:00,75.9,72.1,29.85,SSE,153,5.0,10.0,88,0.00,,---,0.00,VWS V14.00,2013-04-17 18:53:00,
2013-04-17 13:55:00,75.8,72.0,29.85,ENE,77,6.0,13.0,88,0.00,,---,0.00,VWS V14.00,2013-04-17 18:55:00,
2013-04-17 13:58:00,75.8,72.0,29.85,ESE,117,5.0,10.0,88,0.00,,---,0.00,VWS V14.00,2013-04-17 18:58:00,
2013-04-17 14:00:00,75.7,71.9,29.85,ESE,119,4.0,10.0,88,0.00,,---,0.00,VWS V14.00,2013-04-17 19:00:00,
2013-04-17 14:02:00,75.7,71.9,29.85,SSE,151,3.0,11.0,88,0.00,,---,0.00,VWS V14.00,2013-04-17 19:02:00,
2013-04-17 14:05:00,75.7,71.9,29.85,SE,142,3.0,11.0,88,0.00,,---,0.00,VWS V14.00,2013-04-17 19:05:00,
2013-04-17 14:07:00,75.6,71.8,29.85,ESE,118,3.0,8.0,88,0.00,,---,0.00,VWS V14.00,2013-04-17 19:07:00,
2013-04-17 14:10:00,75.6,72.1,29.84,ESE,104,1.0,8.0,89,0.00,,---,0.00,VWS V14.00,2013-04-17 19:10:00,
2013-04-17 14:12:00,75.7,72.2,29.84,South,175,0.0,5.0,89,0.00,,---,0.00,VWS V14.00,2013-04-17 19:12:00,
2013-04-17 14:15:00,75.6,72.1,29.84,SSW,202,6.0,10.0,89,0.00,,---,0.00,VWS V14.00,2013-04-17 19:15:00,
2013-04-17 14:17:00,75.6,72.1,29.84,South,176,4.0,10.0,89,0.00,,---,0.00,VWS V14.00,2013-04-17 19:17:00,
2013-04-17 14:20:00,75.6,72.1,29.84,East,101,4.0,12.0,89,0.00,,---,0.00,VWS V14.00,2013-04-17 19:20:00,
2013-04-17 14:22:00,75.6,71.8,29.84,ESE,106,4.0,15.0,88,0.00,,---,0.00,VWS V14.00,2013-04-17 19:22:00,
2013-04-17 14:25:00,75.6,72.1,29.84,East,94,5.0,15.0,89,0.00,,---,0.00,VWS V14.00,2013-04-17 19:25:00,
2013-04-17 14:27:00,75.6,72.1,29.84,ESE,116,5.0,9.0,89,0.00,,---,0.00,VWS V14.00,2013-04-17 19:27:00,
2013-04-17 14:30:00,75.7,72.2,29.83,East,97,3.0,9.0,89,0.00,,---,0.00,VWS V14.00,2013-04-17 19:30:00,
2013-04-17 14:32:00,75.7,72.2,29.83,ESE,102,8.0,9.0,89,0.00,,---,0.00,VWS V14.00,2013-04-17 19:32:00,
2013-04-17 14:35:00,75.6,72.1,29.83,SW,225,2.0,12.0,89,0.00,,---,0.00,VWS V14.00,2013-04-17 19:35:00,
2013-04-17 14:38:00,75.6,72.1,29.83,ESE,107,3.0,10.0,89,0.00,,---,0.00,VWS V14.00,2013-04-17 19:38:00,
2013-04-17 14:40:00,75.5,72.0,29.83,East,101,9.0,10.0,89,0.00,,---,0.00,VWS V14.00,2013-04-17 19:40:00,
2013-04-17 14:43:00,75.5,72.0,29.82,West,265,4.0,9.0,89,0.00,,---,0.00,VWS V14.00,2013-04-17 19:43:00,
2013-04-17 14:45:00,75.5,72.0,29.82,SE,137,5.0,10.0,89,0.00,,---,0.00,VWS V14.00,2013-04-17 19:45:00,
2013-04-17 14:48:00,75.5,71.7,29.82,ESE,110,2.0,9.0,88,0.00,,---,0.00,VWS V14.00,2013-04-17 19:48:00,
2013-04-17 14:50:00,75.5,71.7,29.82,ESE,103,5.0,12.0,88,0.00,,---,0.00,VWS V14.00,2013-04-17 19:50:00,
2013-04-17 14:53:00,75.4,71.6,29.82,East,96,5.0,10.0,88,0.00,,---,0.00,VWS V14.00,2013-04-17 19:53:00,
2013-04-17 14:55:00,75.5,71.7,29.82,South,178,2.0,10.0,88,0.00,,---,0.00,VWS V14.00,2013-04-17 19:55:00,
2013-04-17 14:58:00,75.4,71.6,29.82,SE,146,6.0,10.0,88,0.00,,---,0.00,VWS V14.00,2013-04-17 19:58:00,
2013-04-17 15:00:00,75.4,71.6,29.82,East,97,3.0,11.0,88,0.00,,---,0.00,VWS V14.00,2013-04-17 20:00:00,
2013-04-17 15:03:00,75.3,71.5,29.82,West,279,4.0,7.0,88,0.00,,---,0.00,VWS V14.00,2013-04-17 20:03:00,
2013-04-17 15:05:00,75.3,71.8,29.82,NE,45,5.0,9.0,89,0.00,,---,0.00,VWS V14.00,2013-04-17 20:05:00,
2013-04-17 15:08:00,75.2,71.7,29.82,ESE,115,3.0,7.0,89,0.00,,---,0.00,VWS V14.00,2013-04-17 20:08:00,
2013-04-17 15:10:00,75.2,71.7,29.82,SE,142,5.0,10.0,89,0.00,,---,0.00,VWS V14.00,2013-04-17 20:10:00,
2013-04-17 15:13:00,75.2,71.7,29.82,East,101,3.0,6.0,89,0.00,,---,0.00,VWS V14.00,2013-04-17 20:13:00,
2013-04-17 15:15:00,75.1,71.6,29.82,ESE,123,8.0,11.0,89,0.00,,---,0.00,VWS V14.00,2013-04-17 20:15:00,
2013-04-17 15:18:00,75.1,71.6,29.81,ESE,106,6.0,10.0,89,0.00,,---,0.00,VWS V14.00,2013-04-17 20:18:00,
2013-04-17 15:20:00,75.1,71.6,29.81,ESE,102,6.0,10.0,89,0.00,,---,0.00,VWS V14.00,2013-04-17 20:20:00,
2013-04-17 15:23:00,75.1,71.6,29.81,ESE,116,5.0,13.0,89,0.00,,---,0.00,VWS V14.00,2013-04-17 20:23:00,
2013-04-17 15:25:00,75.1,71.6,29.81,SSE,156,1.0,13.0,89,0.00,,---,0.00,VWS V14.00,2013-04-17 20:25:00,
2013-04-17 15:28:00,75.1,71.6,29.81,NNE,15,6.0,9.0,89,0.00,,---,0.00,VWS V14.00,2013-04-17 20:28:00,
2013-04-17 15:30:00,74.9,71.4,29.81,East,98,4.0,11.0,89,0.00,,---,0.00,VWS V14.00,2013-04-17 20:30:00,
2013-04-17 15:33:00,75.0,71.5,29.81,ESE,106,4.0,11.0,89,0.00,,---,0.00,VWS V14.00,2013-04-17 20:33:00,
2013-04-17 15:35:00,74.9,71.4,29.81,South,179,1.0,11.0,89,0.00,,---,0.00,VWS V14.00,2013-04-17 20:35:00,
2013-04-17 15:38:00,74.9,71.4,29.81,East,94,2.0,6.0,89,0.00,,---,0.00,VWS V14.00,2013-04-17 20:38:00,
2013-04-17 15:40:00,74.9,71.4,29.82,SSE,148,2.0,10.0,89,0.00,,---,0.00,VWS V14.00,2013-04-17 20:40:00,
2013-04-17 15:43:00,74.9,71.4,29.81,ESE,109,6.0,12.0,89,0.00,,---,0.00,VWS V14.00,2013-04-17 20:43:00,
2013-04-17 15:45:00,74.8,71.3,29.81,ESE,105,7.0,12.0,89,0.00,,---,0.00,VWS V14.00,2013-04-17 20:45:00,
2013-04-17 15:48:00,74.8,71.3,29.81,East,98,6.0,7.0,89,0.00,,---,0.00,VWS V14.00,2013-04-17 20:48:00,
2013-04-17 15:50:00,74.8,71.3,29.81,East,94,4.0,7.0,89,0.00,,---,0.00,VWS V14.00,2013-04-17 20:50:00,
2013-04-17 15:53:00,74.8,71.3,29.81,SE,124,3.0,8.0,89,0.00,,---,0.00,VWS V14.00,2013-04-17 20:53:00,
2013-04-17 15:55:00,74.8,71.3,29.81,SE,126,11.0,11.0,89,0.00,,---,0.00,VWS V14.00,2013-04-17 20:55:00,
2013-04-17 15:58:00,74.8,71.3,29.81,SE,138,4.0,12.0,89,0.00,,---,0.00,VWS V14.00,2013-04-17 20:58:00,
2013-04-17 16:00:00,74.8,71.3,29.81,ESE,115,2.0,12.0,89,0.00,,---,0.00,VWS V14.00,2013-04-17 21:00:00,
2013-04-17 16:03:00,74.8,71.3,29.81,East,91,7.0,11.0,89,0.00,,---,0.00,VWS V14.00,2013-04-17 21:03:00,
2013-04-17 16:05:00,74.8,71.3,29.80,ESE,103,11.0,11.0,89,0.00,,---,0.00,VWS V14.00,2013-04-17 21:05:00,
2013-04-17 16:08:00,74.8,71.3,29.80,East,98,7.0,11.0,89,0.00,,---,0.00,VWS V14.00,2013-04-17 21:08:00,
2013-04-17 16:10:00,74.9,71.4,29.80,SSE,152,5.0,11.0,89,0.00,,---,0.00,VWS V14.00,2013-04-17 21:10:00,
2013-04-17 16:13:00,74.9,71.4,29.80,East,101,5.0,10.0,89,0.00,,---,0.00,VWS V14.00,2013-04-17 21:13:00,
2013-04-17 16:15:00,74.9,71.4,29.80,ESE,103,2.0,13.0,89,0.00,,---,0.00,VWS V14.00,2013-04-17 21:15:00,
2013-04-17 16:18:00,75.0,71.5,29.80,South,182,17.0,17.0,89,0.00,,---,0.00,VWS V14.00,2013-04-17 21:18:00,
2013-04-17 16:20:00,75.1,71.6,29.80,East,84,8.0,17.0,89,0.00,,---,0.00,VWS V14.00,2013-04-17 21:20:00,
2013-04-17 16:23:00,75.1,71.6,29.80,ENE,58,2.0,8.0,89,0.00,,---,0.00,VWS V14.00,2013-04-17 21:23:00,
2013-04-17 16:25:00,75.2,71.7,29.79,East,84,8.0,12.0,89,0.00,,---,0.00,VWS V14.00,2013-04-17 21:25:00,
2013-04-17 16:28:00,75.2,71.7,29.79,East,100,4.0,8.0,89,0.00,,---,0.00,VWS V14.00,2013-04-17 21:28:00,
2013-04-17 16:30:00,75.3,71.8,29.79,ESE,114,5.0,12.0,89,0.00,,---,0.00,VWS V14.00,2013-04-17 21:30:00,
2013-04-17 16:32:00,75.3,71.5,29.79,SE,135,1.0,11.0,88,0.00,,---,0.00,VWS V14.00,2013-04-17 21:32:00,
2013-04-17 16:35:00,75.4,71.9,29.79,SE,144,5.0,11.0,89,0.00,,---,0.00,VWS V14.00,2013-04-17 21:35:00,
2013-04-17 16:37:00,75.4,71.9,29.79,South,188,6.0,9.0,89,0.00,,---,0.00,VWS V14.00,2013-04-17 21:37:00,
2013-04-17 16:40:00,75.4,71.6,29.78,South,182,5.0,11.0,88,0.00,,---,0.00,VWS V14.00,2013-04-17 21:40:00,
2013-04-17 16:42:00,75.4,71.6,29.78,ESE,119,5.0,13.0,88,0.00,,---,0.00,VWS V14.00,2013-04-17 21:42:00,
2013-04-17 16:45:00,75.4,71.6,29.78,SSE,161,7.0,13.0,88,0.00,,---,0.00,VWS V14.00,2013-04-17 21:45:00,
2013-04-17 16:47:00,75.4,71.6,29.78,SSE,162,2.0,13.0,88,0.00,,---,0.00,VWS V14.00,2013-04-17 21:47:00,
2013-04-17 16:50:00,75.5,71.7,29.78,East,99,6.0,13.0,88,0.00,,---,0.00,VWS V14.00,2013-04-17 21:50:00,
2013-04-17 16:52:00,75.5,71.7,29.78,ENE,59,4.0,8.0,88,0.00,,---,0.00,VWS V14.00,2013-04-17 21:52:00,
2013-04-17 16:55:00,75.4,71.6,29.78,South,178,1.0,12.0,88,0.00,,---,0.00,VWS V14.00,2013-04-17 21:55:00,
2013-04-17 16:57:00,75.4,71.6,29.77,ESE,113,5.0,9.0,88,0.00,,---,0.00,VWS V14.00,2013-04-17 21:57:00,
2013-04-17 17:00:00,75.4,71.6,29.77,SE,142,1.0,11.0,88,0.00,,---,0.00,VWS V14.00,2013-04-17 22:00:00,
2013-04-17 17:02:00,75.4,71.6,29.77,ESE,104,5.0,10.0,88,0.00,,---,0.00,VWS V14.00,2013-04-17 22:02:00,
2013-04-17 17:05:00,75.4,71.6,29.78,SE,133,7.0,10.0,88,0.00,,---,0.00,VWS V14.00,2013-04-17 22:05:00,
2013-04-17 17:07:00,75.4,71.6,29.78,East,90,3.0,8.0,88,0.00,,---,0.00,VWS V14.00,2013-04-17 22:07:00,
2013-04-17 17:10:00,75.2,71.4,29.77,East,91,5.0,12.0,88,0.00,,---,0.00,VWS V14.00,2013-04-17 22:10:00,
2013-04-17 17:12:00,75.2,71.4,29.78,East,83,2.0,11.0,88,0.00,,---,0.00,VWS V14.00,2013-04-17 22:12:00,
2013-04-17 17:15:00,75.1,71.3,29.77,ESE,113,5.0,15.0,88,0.00,,---,0.00,VWS V14.00,2013-04-17 22:15:00,
2013-04-17 17:17:00,75.1,71.6,29.77,SSW,209,2.0,10.0,89,0.00,,---,0.00,VWS V14.00,2013-04-17 22:17:00,
2013-04-17 17:20:00,75.1,71.6,29.77,East,94,4.0,10.0,89,0.00,,---,0.00,VWS V14.00,2013-04-17 22:20:00,
2013-04-17 17:22:00,75.1,71.6,29.77,East,100,3.0,10.0,89,0.00,,---,0.00,VWS V14.00,2013-04-17 22:22:00,
2013-04-17 17:25:00,75.1,71.6,29.77,East,101,4.0,12.0,89,0.00,,---,0.00,VWS V14.00,2013-04-17 22:25:00,
2013-04-17 17:27:00,75.0,71.5,29.77,SE,145,4.0,11.0,89,0.00,,---,0.00,VWS V14.00,2013-04-17 22:27:00,
2013-04-17 17:30:00,74.9,71.4,29.77,ESE,113,3.0,11.0,89,0.00,,---,0.00,VWS V14.00,2013-04-17 22:30:00,
2013-04-17 17:32:00,74.9,71.4,29.77,SSE,155,2.0,7.0,89,0.00,,---,0.00,VWS V14.00,2013-04-17 22:32:00,
2013-04-17 17:35:00,74.9,71.4,29.77,SSE,159,3.0,10.0,89,0.00,,---,0.00,VWS V14.00,2013-04-17 22:35:00,
2013-04-17 17:37:00,74.8,71.3,29.77,SSW,213,4.0,12.0,89,0.00,,---,0.00,VWS V14.00,2013-04-17 22:37:00,
2013-04-17 17:40:00,74.8,71.3,29.77,SE,130,5.0,12.0,89,0.00,,---,0.00,VWS V14.00,2013-04-17 22:40:00,
2013-04-17 17:42:00,74.8,71.3,29.77,ESE,107,13.0,13.0,89,0.00,,---,0.00,VWS V14.00,2013-04-17 22:42:00,
2013-04-17 17:45:00,74.8,71.3,29.77,SE,132,4.0,15.0,89,0.00,,---,0.00,VWS V14.00,2013-04-17 22:45:00,
2013-04-17 17:47:00,74.8,71.3,29.78,East,82,10.0,10.0,89,0.00,,---,0.00,VWS V14.00,2013-04-17 22:47:00,
2013-04-17 17:50:00,74.8,71.3,29.77,SSW,194,5.0,17.0,89,0.00,,---,0.00,VWS V14.00,2013-04-17 22:50:00,
2013-04-17 17:52:00,74.8,71.3,29.77,SSW,198,1.0,11.0,89,0.00,,---,0.00,VWS V14.00,2013-04-17 22:52:00,
2013-04-17 17:55:00,74.8,71.3,29.77,ESE,123,2.0,11.0,89,0.00,,---,0.00,VWS V14.00,2013-04-17 22:55:00,
2013-04-17 17:57:00,74.7,71.2,29.78,SE,132,4.0,9.0,89,0.00,,---,0.00,VWS V14.00,2013-04-17 22:57:00,
2013-04-17 18:00:00,74.7,71.2,29.77,ENE,75,4.0,9.0,89,0.00,,---,0.00,VWS V14.00,2013-04-17 23:00:00,
2013-04-17 18:02:00,74.6,71.2,29.77,SW,223,4.0,9.0,89,0.00,,---,0.00,VWS V14.00,2013-04-17 23:02:00,
2013-04-17 18:05:00,74.6,71.2,29.77,SW,234,0.0,9.0,89,0.00,,---,0.00,VWS V14.00,2013-04-17 23:05:00,
2013-04-17 18:07:00,74.6,71.2,29.77,SE,126,3.0,11.0,89,0.00,,---,0.00,VWS V14.00,2013-04-17 23:07:00,
2013-04-17 18:10:00,74.6,71.2,29.77,SSE,164,6.0,12.0,89,0.00,,---,0.00,VWS V14.00,2013-04-17 23:10:00,
2013-04-17 18:12:00,74.6,71.2,29.77,SSE,167,4.0,10.0,89,0.00,,---,0.00,VWS V14.00,2013-04-17 23:12:00,
2013-04-17 18:15:00,74.5,71.1,29.77,ESE,113,6.0,11.0,89,0.00,,---,0.00,VWS V14.00,2013-04-17 23:15:00,
2013-04-17 18:17:00,74.5,71.1,29.77,SE,142,4.0,14.0,89,0.00,,---,0.00,VWS V14.00,2013-04-17 23:17:00,
2013-04-17 18:20:00,74.5,71.1,29.77,SSE,160,4.0,14.0,89,0.00,,---,0.00,VWS V14.00,2013-04-17 23:20:00,
2013-04-17 18:22:00,74.5,71.1,29.77,East,101,3.0,15.0,89,0.00,,---,0.00,VWS V14.00,2013-04-17 23:22:00,
2013-04-17 18:25:00,74.5,71.1,29.77,East,84,3.0,15.0,89,0.00,,---,0.00,VWS V14.00,2013-04-17 23:25:00,
2013-04-17 18:27:00,74.4,70.9,29.77,South,170,4.0,7.0,89,0.00,,---,0.00,VWS V14.00,2013-04-17 23:27:00,
2013-04-17 18:30:00,74.4,70.9,29.77,South,180,3.0,14.0,89,0.00,,---,0.00,VWS V14.00,2013-04-17 23:30:00,
2013-04-17 18:32:00,74.4,70.9,29.77,SSW,195,12.0,12.0,89,0.00,,---,0.00,VWS V14.00,2013-04-17 23:32:00,
2013-04-17 18:35:00,74.3,70.8,29.77,South,172,4.0,12.0,89,0.00,,---,0.00,VWS V14.00,2013-04-17 23:35:00,
2013-04-17 18:37:00,74.3,70.8,29.77,SSW,198,9.0,12.0,89,0.00,,---,0.00,VWS V14.00,2013-04-17 23:37:00,
2013-04-17 18:40:00,74.3,70.8,29.77,ESE,111,7.0,12.0,89,0.00,,---,0.00,VWS V14.00,2013-04-17 23:40:00,
2013-04-17 18:42:00,74.2,70.8,29.77,ENE,68,1.0,7.0,89,0.00,,---,0.00,VWS V14.00,2013-04-17 23:42:00,
2013-04-17 18:45:00,74.2,70.8,29.77,SSE,167,1.0,7.0,89,0.00,,---,0.00,VWS V14.00,2013-04-17 23:45:00,
2013-04-17 18:47:00,74.2,70.8,29.77,SSW,198,10.0,10.0,89,0.00,,---,0.00,VWS V14.00,2013-04-17 23:47:00,
2013-04-17 18:50:00,74.2,70.8,29.77,SSW,200,3.0,14.0,89,0.00,,---,0.00,VWS V14.00,2013-04-17 23:50:00,
2013-04-17 18:52:00,74.2,70.8,29.77,SE,126,5.0,10.0,89,0.00,,---,0.00,VWS V14.00,2013-04-17 23:52:00,
2013-04-17 18:55:00,74.2,70.8,29.76,ESE,116,3.0,10.0,89,0.00,,---,0.00,VWS V14.00,2013-04-17 23:55:00,
2013-04-17 18:57:00,74.2,70.8,29.76,East,91,7.0,11.0,89,0.00,,---,0.00,VWS V14.00,2013-04-17 23:57:00,
2013-04-17 19:00:00,74.2,70.8,29.76,ESE,107,5.0,12.0,89,0.00,,---,0.00,VWS V14.00,2013-04-18 00:00:00,
2013-04-17 19:02:00,74.2,70.8,29.76,SE,136,6.0,12.0,89,0.00,,---,0.00,VWS V14.00,2013-04-18 00:02:00,
2013-04-17 19:05:00,74.2,70.8,29.76,SE,128,6.0,12.0,89,0.00,,---,0.00,VWS V14.00,2013-04-18 00:05:00,
2013-04-17 19:07:00,74.2,71.1,29.76,WSW,254,0.0,11.0,90,0.00,,---,0.00,VWS V14.00,2013-04-18 00:07:00,
2013-04-17 19:10:00,74.2,71.1,29.76,ESE,114,7.0,15.0,90,0.00,,---,0.00,VWS V14.00,2013-04-18 00:10:00,
2013-04-17 19:12:00,74.2,71.1,29.76,East,94,4.0,7.0,90,0.00,,---,0.00,VWS V14.00,2013-04-18 00:12:00,
2013-04-17 19:15:00,74.2,71.1,29.76,SW,223,2.0,10.0,90,0.00,,---,0.00,VWS V14.00,2013-04-18 00:15:00,
2013-04-17 19:17:00,74.2,71.1,29.76,SSE,147,2.0,5.0,90,0.00,,---,0.00,VWS V14.00,2013-04-18 00:17:00,
2013-04-17 19:20:00,74.1,71.0,29.76,East,87,3.0,12.0,90,0.00,,---,0.00,VWS V14.00,2013-04-18 00:20:00,
2013-04-17 19:22:00,74.1,71.0,29.76,ESE,105,6.0,11.0,90,0.00,,---,0.00,VWS V14.00,2013-04-18 00:22:00,
2013-04-17 19:25:00,74.1,71.0,29.76,ESE,102,2.0,14.0,90,0.00,,---,0.00,VWS V14.00,2013-04-18 00:25:00,
2013-04-17 19:27:00,74.1,71.0,29.76,ESE,121,3.0,11.0,90,0.00,,---,0.00,VWS V14.00,2013-04-18 00:27:00,
2013-04-17 19:30:00,74.0,70.9,29.76,ESE,114,4.0,15.0,90,0.00,,---,0.00,VWS V14.00,2013-04-18 00:30:00,
2013-04-17 19:32:00,74.0,70.9,29.76,ESE,107,4.0,8.0,90,0.00,,---,0.00,VWS V14.00,2013-04-18 00:32:00,
2013-04-17 19:35:00,74.0,70.6,29.76,ESE,105,6.0,13.0,89,0.00,,---,0.00,VWS V14.00,2013-04-18 00:35:00,
2013-04-17 19:37:00,74.0,70.6,29.76,South,182,5.0,7.0,89,0.00,,---,0.00,VWS V14.00,2013-04-18 00:37:00,
2013-04-17 19:40:00,73.9,70.8,29.76,East,101,6.0,11.0,90,0.00,,---,0.00,VWS V14.00,2013-04-18 00:40:00,
2013-04-17 19:42:00,73.9,70.8,29.77,ESE,119,1.0,6.0,90,0.00,,---,0.00,VWS V14.00,2013-04-18 00:42:00,
2013-04-17 19:45:00,73.8,70.7,29.77,SW,229,7.0,11.0,90,0.00,,---,0.00,VWS V14.00,2013-04-18 00:45:00,
2013-04-17 19:47:00,73.8,70.7,29.77,ESE,103,6.0,13.0,90,0.00,,---,0.00,VWS V14.00,2013-04-18 00:47:00,
2013-04-17 19:50:00,73.8,70.7,29.77,ESE,107,5.0,13.0,90,0.00,,---,0.00,VWS V14.00,2013-04-18 00:50:00,
2013-04-17 19:52:00,73.8,70.7,29.77,West,272,5.0,5.0,90,0.00,,---,0.00,VWS V14.00,2013-04-18 00:52:00,
2013-04-17 19:55:00,73.8,70.7,29.77,ESE,119,3.0,12.0,90,0.00,,---,0.00,VWS V14.00,2013-04-18 00:55:00,
2013-04-17 19:57:00,73.8,70.7,29.77,East,84,3.0,5.0,90,0.00,,---,0.00,VWS V14.00,2013-04-18 00:57:00,
2013-04-17 20:00:00,73.7,70.6,29.76,SSW,206,10.0,14.0,90,0.00,,---,0.00,VWS V14.00,2013-04-18 01:00:00,
2013-04-17 20:02:00,73.7,70.6,29.77,East,98,7.0,10.0,90,0.00,,---,0.00,VWS V14.00,2013-04-18 01:02:00,
2013-04-17 20:05:00,73.7,70.6,29.76,East,92,5.0,12.0,90,0.00,,---,0.00,VWS V14.00,2013-04-18 01:05:00,
2013-04-17 20:07:00,73.7,70.6,29.76,West,274,12.0,12.0,90,0.00,,---,0.00,VWS V14.00,2013-04-18 01:07:00,
2013-04-17 20:10:00,73.7,70.6,29.76,South,169,6.0,12.0,90,0.00,,---,0.00,VWS V14.00,2013-04-18 01:10:00,
2013-04-17 20:12:00,73.7,70.6,29.76,East,84,5.0,10.0,90,0.00,,---,0.00,VWS V14.00,2013-04-18 01:12:00,
2013-04-17 20:15:00,73.7,70.6,29.76,SSE,151,4.0,10.0,90,0.00,,---,0.00,VWS V14.00,2013-04-18 01:15:00,
2013-04-17 20:17:00,73.7,70.6,29.75,SE,132,7.0,10.0,90,0.00,,---,0.00,VWS V14.00,2013-04-18 01:17:00,
2013-04-17 20:20:00,73.7,70.6,29.75,South,173,4.0,15.0,90,0.00,,---,0.00,VWS V14.00,2013-04-18 01:20:00,
2013-04-17 20:22:00,73.7,70.6,29.75,East,84,9.0,11.0,90,0.00,,---,0.00,VWS V14.00,2013-04-18 01:22:00,
2013-04-17 20:25:00,73.6,70.5,29.75,NW,314,4.0,12.0,90,0.00,,---,0.00,VWS V14.00,2013-04-18 01:25:00,
2013-04-17 20:27:00,73.6,70.5,29.76,SSE,155,8.0,10.0,90,0.00,,---,0.00,VWS V14.00,2013-04-18 01:27:00,
2013-04-17 20:30:00,73.6,70.5,29.76,SSW,213,9.0,10.0,90,0.00,,---,0.00,VWS V14.00,2013-04-18 01:30:00,
2013-04-17 20:32:00,73.6,70.5,29.76,SE,127,2.0,11.0,90,0.00,,---,0.00,VWS V14.00,2013-04-18 01:32:00,
2013-04-17 20:35:00,73.6,70.5,29.76,South,178,5.0,12.0,90,0.00,,---,0.00,VWS V14.00,2013-04-18 01:35:00,
2013-04-17 20:37:00,73.5,70.4,29.76,ESE,123,2.0,6.0,90,0.00,,---,0.00,VWS V14.00,2013-04-18 01:37:00,
2013-04-17 20:40:00,73.5,70.4,29.76,East,100,15.0,15.0,90,0.00,,---,0.00,VWS V14.00,2013-04-18 01:40:00,
2013-04-17 20:42:00,73.5,70.4,29.76,NNW,345,5.0,15.0,90,0.00,,---,0.00,VWS V14.00,2013-04-18 01:42:00,
2013-04-17 20:45:00,73.5,70.4,29.76,ESE,111,4.0,15.0,90,0.00,,---,0.00,VWS V14.00,2013-04-18 01:45:00,
2013-04-17 20:47:00,73.5,70.4,29.76,East,99,3.0,6.0,90,0.00,,---,0.00,VWS V14.00,2013-04-18 01:47:00,
2013-04-17 20:50:00,73.5,70.4,29.76,East,82,6.0,11.0,90,0.00,,---,0.00,VWS V14.00,2013-04-18 01:50:00,
2013-04-17 20:52:00,73.5,70.4,29.76,East,97,4.0,7.0,90,0.00,,---,0.00,VWS V14.00,2013-04-18 01:52:00,
2013-04-17 20:55:00,73.5,70.4,29.76,SE,134,13.0,13.0,90,0.00,,---,0.00,VWS V14.00,2013-04-18 01:55:00,
2013-04-17 20:57:00,73.5,70.4,29.76,ESE,111,5.0,14.0,90,0.00,,---,0.00,VWS V14.00,2013-04-18 01:57:00,
2013-04-17 21:00:00,73.5,70.4,29.76,SW,230,4.0,17.0,90,0.00,,---,0.00,VWS V14.00,2013-04-18 02:00:00,
2013-04-17 21:02:00,73.5,70.4,29.76,ESE,109,6.0,7.0,90,0.00,,---,0.00,VWS V14.00,2013-04-18 02:02:00,
2013-04-17 21:05:00,73.5,70.4,29.76,South,175,1.0,12.0,90,0.00,,---,0.00,VWS V14.00,2013-04-18 02:05:00,
2013-04-17 21:07:00,73.5,70.4,29.76,ESE,107,6.0,11.0,90,0.00,,---,0.00,VWS V14.00,2013-04-18 02:07:00,
2013-04-17 21:10:00,73.4,70.3,29.77,SSE,151,4.0,11.0,90,0.00,,---,0.00,VWS V14.00,2013-04-18 02:10:00,
2013-04-17 21:12:00,73.4,70.3,29.77,SSW,202,0.0,11.0,90,0.00,,---,0.00,VWS V14.00,2013-04-18 02:12:00,
2013-04-17 21:15:00,73.4,70.3,29.77,East,101,5.0,12.0,90,0.00,,---,0.00,VWS V14.00,2013-04-18 02:15:00,
2013-04-17 21:17:00,73.4,70.3,29.77,SSE,163,7.0,13.0,90,0.00,,---,0.00,VWS V14.00,2013-04-18 02:17:00,
2013-04-17 21:20:00,73.4,70.3,29.77,South,169,5.0,15.0,90,0.00,,---,0.00,VWS V14.00,2013-04-18 02:20:00,
2013-04-17 21:22:00,73.4,70.3,29.77,SSW,206,2.0,11.0,90,0.00,,---,0.00,VWS V14.00,2013-04-18 02:22:00,
2013-04-17 21:25:00,73.4,70.3,29.77,ESE,112,9.0,11.0,90,0.00,,---,0.00,VWS V14.00,2013-04-18 02:25:00,
2013-04-17 21:27:00,73.4,70.3,29.77,SW,217,4.0,9.0,90,0.00,,---,0.00,VWS V14.00,2013-04-18 02:27:00,
2013-04-17 21:30:00,73.4,70.3,29.77,South,185,2.0,13.0,90,0.00,,---,0.00,VWS V14.00,2013-04-18 02:30:00,
2013-04-17 21:32:00,73.4,70.3,29.78,East,99,2.0,11.0,90,0.00,,---,0.00,VWS V14.00,2013-04-18 02:32:00,
2013-04-17 21:35:00,73.4,70.3,29.78,SSE,148,15.0,20.0,90,0.00,,---,0.00,VWS V14.00,2013-04-18 02:35:00,
2013-04-17 21:37:00,73.3,70.2,29.78,SSE,157,3.0,15.0,90,0.00,,---,0.00,VWS V14.00,2013-04-18 02:37:00,
2013-04-17 21:40:00,73.3,70.2,29.78,East,94,6.0,15.0,90,0.00,,---,0.00,VWS V14.00,2013-04-18 02:40:00,
2013-04-17 21:42:00,73.3,70.2,29.78,East,90,4.0,11.0,90,0.00,,---,0.00,VWS V14.00,2013-04-18 02:42:00,
2013-04-17 21:45:00,73.3,70.2,29.78,ESE,114,6.0,11.0,90,0.00,,---,0.00,VWS V14.00,2013-04-18 02:45:00,
2013-04-17 21:47:00,73.3,70.2,29.78,SE,137,3.0,7.0,90,0.00,,---,0.00,VWS V14.00,2013-04-18 02:47:00,
2013-04-17 21:50:00,73.3,70.2,29.78,SW,236,6.0,10.0,90,0.00,,---,0.00,VWS V14.00,2013-04-18 02:50:00,
2013-04-17 21:52:00,73.3,70.2,29.78,SSE,157,7.0,12.0,90,0.00,,---,0.00,VWS V14.00,2013-04-18 02:52:00,
2013-04-17 21:55:00,73.3,70.2,29.78,ESE,120,4.0,18.0,90,0.00,,---,0.00,VWS V14.00,2013-04-18 02:55:00,
2013-04-17 21:57:00,73.3,70.2,29.78,SSW,205,4.0,11.0,90,0.00,,---,0.00,VWS V14.00,2013-04-18 02:57:00,
2013-04-17 22:00:00,73.3,70.2,29.78,ESE,122,3.0,11.0,90,0.00,,---,0.00,VWS V14.00,2013-04-18 03:00:00,
2013-04-17 22:02:00,73.3,70.2,29.78,West,274,5.0,15.0,90,0.00,,---,0.00,VWS V14.00,2013-04-18 03:02:00,
2013-04-17 22:05:00,73.3,70.2,29.78,ESE,121,4.0,15.0,90,0.00,,---,0.00,VWS V14.00,2013-04-18 03:05:00,
2013-04-17 22:07:00,73.3,70.2,29.79,SSW,200,4.0,5.0,90,0.00,,---,0.00,VWS V14.00,2013-04-18 03:07:00,
2013-04-17 22:10:00,73.3,70.2,29.78,SSW,207,11.0,16.0,90,0.00,,---,0.00,VWS V14.00,2013-04-18 03:10:00,
2013-04-17 22:12:00,73.3,70.2,29.78,WSW,242,4.0,11.0,90,0.00,,---,0.00,VWS V14.00,2013-04-18 03:12:00,
2013-04-17 22:15:00,73.3,70.2,29.78,ESE,114,5.0,13.0,90,0.00,,---,0.00,VWS V14.00,2013-04-18 03:15:00,
2013-04-17 22:17:00,73.3,70.2,29.78,SW,220,3.0,7.0,90,0.00,,---,0.00,VWS V14.00,2013-04-18 03:17:00,
2013-04-17 22:20:00,73.3,70.2,29.78,ESE,114,6.0,11.0,90,0.00,,---,0.00,VWS V14.00,2013-04-18 03:20:00,
2013-04-17 22:22:00,73.3,70.2,29.78,East,101,6.0,13.0,90,0.00,,---,0.00,VWS V14.00,2013-04-18 03:22:00,
2013-04-17 22:25:00,73.3,70.2,29.78,SSE,166,11.0,13.0,90,0.00,,---,0.00,VWS V14.00,2013-04-18 03:25:00,
2013-04-17 22:27:00,73.3,70.2,29.78,ESE,117,4.0,11.0,90,0.00,,---,0.00,VWS V14.00,2013-04-18 03:27:00,
2013-04-17 22:30:00,73.3,70.2,29.78,East,84,1.0,13.0,90,0.00,,---,0.00,VWS V14.00,2013-04-18 03:30:00,
2013-04-17 22:32:00,73.3,70.2,29.78,ESE,115,2.0,7.0,90,0.00,,---,0.00,VWS V14.00,2013-04-18 03:32:00,
2013-04-17 22:35:00,73.3,70.2,29.78,East,94,3.0,13.0,90,0.00,,---,0.00,VWS V14.00,2013-04-18 03:35:00,
2013-04-17 22:37:00,73.3,70.2,29.78,SW,215,7.0,11.0,90,0.00,,---,0.00,VWS V14.00,2013-04-18 03:37:00,
2013-04-17 22:40:00,73.3,70.2,29.78,East,97,4.0,12.0,90,0.00,,---,0.00,VWS V14.00,2013-04-18 03:40:00,
2013-04-17 22:42:00,73.2,70.1,29.78,SE,124,7.0,11.0,90,0.00,,---,0.00,VWS V14.00,2013-04-18 03:42:00,
2013-04-17 22:45:00,73.2,70.1,29.78,SE,137,2.0,11.0,90,0.00,,---,0.00,VWS V14.00,2013-04-18 03:45:00,
2013-04-17 22:47:00,73.3,70.2,29.78,SW,222,5.0,11.0,90,0.00,,---,0.00,VWS V14.00,2013-04-18 03:47:00,
2013-04-17 22:50:00,73.2,70.1,29.78,SW,218,9.0,15.0,90,0.00,,---,0.00,VWS V14.00,2013-04-18 03:50:00,
2013-04-17 22:52:00,73.3,70.2,29.78,SSW,210,13.0,14.0,90,0.00,,---,0.00,VWS V14.00,2013-04-18 03:52:00,
2013-04-17 22:55:00,73.2,70.1,29.77,East,87,7.0,15.0,90,0.00,,---,0.00,VWS V14.00,2013-04-18 03:55:00,
2013-04-17 22:57:00,73.2,70.1,29.77,ESE,104,5.0,11.0,90,0.00,,---,0.00,VWS V14.00,2013-04-18 03:57:00,
2013-04-17 23:00:00,73.2,70.1,29.77,SSW,202,3.0,13.0,90,0.00,,---,0.00,VWS V14.00,2013-04-18 04:00:00,
2013-04-17 23:01:00,73.2,70.1,29.77,SW,219,4.0,13.0,90,0.00,,---,0.00,VWS V14.00,2013-04-18 04:01:00,
2013-04-17 23:05:00,73.2,70.1,29.77,SSW,207,5.0,11.0,90,0.00,,---,0.00,VWS V14.00,2013-04-18 04:05:00,
2013-04-17 23:07:00,73.2,70.1,29.77,ESE,123,4.0,12.0,90,0.00,,---,0.00,VWS V14.00,2013-04-18 04:07:00,
2013-04-17 23:10:00,73.1,70.0,29.77,SSE,167,5.0,12.0,90,0.00,,---,0.00,VWS V14.00,2013-04-18 04:10:00,
2013-04-17 23:12:00,73.2,70.1,29.77,SW,231,4.0,10.0,90,0.00,,---,0.00,VWS V14.00,2013-04-18 04:12:00,
2013-04-17 23:15:00,73.2,70.1,29.77,East,97,4.0,16.0,90,0.00,,---,0.00,VWS V14.00,2013-04-18 04:15:00,
2013-04-17 23:17:00,73.2,70.1,29.78,SSE,155,3.0,9.0,90,0.00,,---,0.00,VWS V14.00,2013-04-18 04:17:00,
2013-04-17 23:20:00,73.2,70.1,29.78,South,186,3.0,11.0,90,0.00,,---,0.00,VWS V14.00,2013-04-18 04:20:00,
2013-04-17 23:22:00,73.2,70.1,29.78,SSE,155,3.0,8.0,90,0.00,,---,0.00,VWS V14.00,2013-04-18 04:22:00,
2013-04-17 23:25:00,73.2,70.1,29.78,SSE,150,6.0,12.0,90,0.00,,---,0.00,VWS V14.00,2013-04-18 04:25:00,
2013-04-17 23:27:00,73.2,70.1,29.77,ESE,103,6.0,12.0,90,0.00,,---,0.00,VWS V14.00,2013-04-18 04:27:00,
2013-04-17 23:30:00,73.1,70.0,29.77,ESE,111,6.0,12.0,90,0.00,,---,0.00,VWS V14.00,2013-04-18 04:30:00,
2013-04-17 23:32:00,73.2,70.1,29.77,SSW,200,5.0,11.0,90,0.00,,---,0.00,VWS V14.00,2013-04-18 04:32:00,
2013-04-17 23:35:00,73.1,70.0,29.77,SSE,155,0.0,12.0,90,0.00,,---,0.00,VWS V14.00,2013-04-18 04:35:00,
2013-04-17 23:37:00,73.1,70.0,29.78,SE,136,2.0,5.0,90,0.00,,---,0.00,VWS V14.00,2013-04-18 04:37:00,
2013-04-17 23:40:00,73.1,70.0,29.78,East,97,9.0,14.0,90,0.00,,---,0.00,VWS V14.00,2013-04-18 04:40:00,
2013-04-17 23:42:00,73.2,70.1,29.78,SE,142,1.0,13.0,90,0.00,,---,0.00,VWS V14.00,2013-04-18 04:42:00,
2013-04-17 23:45:00,73.2,70.1,29.78,ESE,110,4.0,13.0,90,0.00,,---,0.00,VWS V14.00,2013-04-18 04:45:00,
2013-04-17 23:47:00,73.2,70.1,29.78,ESE,121,5.0,16.0,90,0.00,,---,0.00,VWS V14.00,2013-04-18 04:47:00,
2013-04-17 23:50:00,73.2,70.1,29.78,SE,145,5.0,16.0,90,0.00,,---,0.00,VWS V14.00,2013-04-18 04:50:00,
2013-04-17 23:52:00,73.2,70.1,29.79,SE,132,6.0,12.0,90,0.00,,---,0.00,VWS V14.00,2013-04-18 04:52:00,
2013-04-17 23:55:00,73.2,70.1,29.78,South,191,6.0,13.0,90,0.00,,---,0.00,VWS V14.00,2013-04-18 04:55:00,
2013-04-17 23:57:00,73.2,70.1,29.78,SSE,152,3.0,11.0,90,0.00,,---,0.00,VWS V14.00,2013-04-18 04:57:00,